CW3467 Sant Marti de Canals ES current weather conditions

sailwx.info

Wind from 225 at 4 knots gusting 9

Air temperature 25.6° C
Dewpoint 10.2° C

Last reported at 2015-May-28 17:50 UTC.
Time now 2015-May-28 18:10 UTC

Location: N 42°14' E 000°59'.
View on Google Maps.

See reports from other nearby stations

  
Tides and Currents Weather Stations Pressure Air Temp Water Temp Dewpoint Dewpoint Depression Visibility Wind Speed Wind Dir Waves Ship Positions
date/time (UTC)wind fromknots sea level pressurealtimeterstation pressurevisibilityair tempwater tempwave heightnotes
2015-May-28 17:50 225 4 gusting 9 25.6
2015-May-28 17:32 222 2 gusting 6 26.1
2015-May-28 17:14 188 1 gusting 6 26.1
2015-May-28 16:57 233 3 gusting 6 26.7
2015-May-28 16:39 172 3 gusting 6 26.7
2015-May-28 16:21 340 2 gusting 6 26.7
2015-May-28 16:03 242 3 gusting 8 26.7
2015-May-28 15:45 113 1 gusting 8 27.2
2015-May-28 15:26 229 3 gusting 6 27.2
2015-May-28 15:09 271 2 gusting 6 26.7
2015-May-28 14:49 224 1 gusting 8 27.2
2015-May-28 14:31 107 1 gusting 6 26.7
2015-May-28 14:13 255 2 gusting 7 26.7
2015-May-28 13:55 211 2 gusting 7 26.7
2015-May-28 13:37 215 2 gusting 8 26.1
2015-May-28 13:19 212 4 gusting 8 26.7
2015-May-28 13:03 215 3 gusting 8 26.7
2015-May-28 12:43 165 3 gusting 10 26.1
2015-May-28 12:25 047 2 gusting 7 25.6
2015-May-28 12:07 222 2 gusting 10 25.6
2015-May-28 11:49 240 2 gusting 5 25.0
2015-May-28 11:30 229 3 gusting 8 24.4
2015-May-28 11:13 222 4 gusting 9 24.4
2015-May-28 10:55 221 3 gusting 7 24.4
2015-May-28 10:37 222 2 gusting 7 23.9
2015-May-28 10:19 204 2 gusting 5 23.3
2015-May-28 10:01 264 1 gusting 6 22.8
2015-May-28 09:41 312 0 gusting 3 22.2
2015-May-28 09:23 173 1 gusting 4 21.1
2015-May-28 09:05 231 20.6
2015-May-28 08:47 249 0 gusting 3 19.4
2015-May-28 08:29 224 0 gusting 5 18.3
2015-May-28 08:11 152 1 gusting 5 17.8
2015-May-28 07:53 225 0 gusting 2 17.2
2015-May-28 07:35 221 16.7
2015-May-28 07:20 212 15.6
2015-May-28 07:02 211 15.0
2015-May-28 06:42 221 14.4
2015-May-28 06:24 138 13.3
2015-May-28 06:04 090 13.3
2015-May-28 05:46 091 12.2
2015-May-28 05:28 089 10.6
2015-May-28 05:10 091 10.6
2015-May-28 04:52 091 11.1
2015-May-28 04:35 136 11.1
2015-May-28 04:17 131 0 gusting 1 11.1
2015-May-28 03:58 120 0 gusting 2 11.1
2015-May-28 03:40 111 11.1
2015-May-28 03:22 079 11.7
2015-May-28 03:05 029 11.7
2015-May-28 02:47 029 11.7
2015-May-28 02:29 011 12.2
2015-May-28 02:11 112 0 gusting 3 12.2
2015-May-28 01:51 126 0 gusting 2 12.2
2015-May-28 01:33 109 0 gusting 1 12.8
2015-May-28 01:15 142 0 gusting 2 13.3
2015-May-28 00:57 120 2 gusting 3 13.3
2015-May-28 00:39 129 1 gusting 3 13.9
2015-May-28 00:21 098 14.4
2015-May-28 00:03 100 14.4
2015-May-27 23:45 100 15.0
2015-May-27 23:27 036 15.0
2015-May-27 23:09 036 15.6
2015-May-27 22:51 339 16.1
2015-May-27 22:32 055 16.1
2015-May-27 22:14 049 16.7
2015-May-27 21:56 356 0 gusting 3 17.2
2015-May-27 21:38 055 1 gusting 6 17.8
2015-May-27 21:20 324 0 gusting 9 18.3
2015-May-27 21:02 097 7 gusting 11 18.3
2015-May-27 20:44 134 8 gusting 12 19.4
2015-May-27 20:26 114 8 gusting 13 19.4
2015-May-27 20:08 128 6 gusting 10 20.0
2015-May-27 19:50 108 5 gusting 8 20.6
2015-May-27 19:32 154 3 gusting 5 20.6
2015-May-27 19:14 174 3 gusting 6 21.1
2015-May-27 18:56 179 3 gusting 8 22.2
2015-May-27 18:38 238 4 gusting 7 23.3
2015-May-27 18:20 200 4 gusting 11 23.9
2015-May-27 18:02 240 3 gusting 9 24.4
2015-May-27 17:44 233 5 gusting 9 24.4
2015-May-27 17:26 270 5 gusting 11 25.0
2015-May-27 17:08 215 4 gusting 12 25.6
2015-May-27 16:50 224 2 gusting 9 25.6
2015-May-27 16:32 340 4 gusting 9 26.1
2015-May-27 16:14 221 4 gusting 10 26.1
2015-May-27 15:54 225 2 gusting 6 26.7
2015-May-27 15:36 302 3 gusting 10 26.1
2015-May-27 15:18 200 5 gusting 10 26.1
2015-May-27 15:00 212 5 gusting 8 26.7
2015-May-27 14:42 235 6 gusting 10 26.7
2015-May-27 14:24 214 3 gusting 10 26.7
2015-May-27 14:06 060 5 gusting 9 26.7
2015-May-27 13:48 205 4 gusting 8 26.1
2015-May-27 13:30 166 4 gusting 8 25.6
2015-May-27 13:13 215 2 gusting 7 26.1
2015-May-27 12:53 217 5 gusting 9 25.6
2015-May-27 12:35 235 5 gusting 11 25.0
2015-May-27 12:17 240 6 gusting 10 24.4
2015-May-27 12:00 235 6 gusting 12 24.4
2015-May-27 11:42 213 4 gusting 13 24.4
2015-May-27 11:23 235 6 gusting 9 24.4
2015-May-27 11:05 308 2 gusting 10 23.9
2015-May-27 10:47 316 5 gusting 11 23.3
2015-May-27 10:29 321 6 gusting 12 23.3
2015-May-27 10:11 360 8 gusting 17 22.2
2015-May-27 09:54 315 4 gusting 14 22.2
2015-May-27 09:34 308 6 gusting 13 21.1
2015-May-27 09:16 324 7 gusting 12 20.6
2015-May-27 08:58 333 6 gusting 11 20.0
2015-May-27 08:42 347 7 gusting 11 19.4
2015-May-27 08:25 339 6 gusting 11 19.4
2015-May-27 08:05 354 6 gusting 11 18.3
2015-May-27 07:47 325 6 gusting 12 17.8
2015-May-27 07:29 330 6 gusting 13 17.8
2015-May-27 07:11 008 4 gusting 14 17.8
2015-May-27 06:53 008 4 gusting 10 17.2
2015-May-27 06:35 358 2 gusting 8 17.2
2015-May-27 06:17 028 3 gusting 8 16.7
2015-May-27 05:59 086 2 gusting 6 16.1
2015-May-27 05:39 037 0 gusting 6 13.9
2015-May-27 05:21 131 0 gusting 3 12.8
2015-May-27 05:03 203 13.9
2015-May-27 04:45 025 2 gusting 6 15.0
2015-May-27 04:27 346 2 gusting 6 15.0
2015-May-27 04:09 347 2 gusting 9 15.0
2015-May-27 03:50 347 3 gusting 7 15.0
2015-May-27 03:34 065 3 gusting 9 15.0
2015-May-27 03:16 046 2 gusting 7 15.6
2015-May-27 02:59 006 1 gusting 8 15.6
2015-May-27 02:43 026 3 gusting 15 16.1
2015-May-27 02:25 029 6 gusting 11 16.1
2015-May-27 02:05 349 9 gusting 17 16.1
2015-May-27 01:45 311 5 gusting 10 16.1
2015-May-27 01:27 358 4 gusting 11 16.1
2015-May-27 01:09 316 8 gusting 13 16.1
2015-May-27 00:51 056 3 gusting 12 16.7
2015-May-27 00:35 049 3 gusting 9 16.7
2015-May-27 00:15 083 5 gusting 9 16.7
2015-May-26 23:57 006 7 gusting 14 16.7
2015-May-26 23:37 056 6 gusting 13 16.7
2015-May-26 23:19 036 8 gusting 19 16.7
2015-May-26 23:01 023 6 gusting 19 16.7
2015-May-26 22:42 358 7 gusting 18 17.2
2015-May-26 22:24 016 5 gusting 14 17.2
2015-May-26 22:08 015 8 gusting 17 17.2
2015-May-26 21:48 149 5 gusting 15 17.2
2015-May-26 21:30 357 9 gusting 19 17.8
2015-May-26 21:12 048 5 gusting 15 17.8
2015-May-26 20:54 064 4 gusting 10 17.8
2015-May-26 20:34 050 6 gusting 15 17.8
2015-May-26 20:16 355 8 gusting 13 17.8
2015-May-26 19:58 063 7 gusting 13 17.8
2015-May-26 19:40 041 5 gusting 16 18.3
2015-May-26 19:22 029 6 gusting 10 18.3
2015-May-26 19:04 062 5 gusting 11 18.9
2015-May-26 18:44 346 7 gusting 12 20.0
2015-May-26 18:26 336 8 gusting 19 20.6
2015-May-26 18:08 067 10 gusting 20 20.6